Location: Sedan
(39.2354°N, 78.5718°W)
Time: 23:40:32
(UTC+00:00)

ISS - Pass Details

Date: 06 December 2021
Orbit: 413 x 422 km, 51.6° (Epoch: 25 January)

Event Time Altitude Azimuth Distance (km) Brightness Sun altitude
Rises 23:50:50 0° 306° (NW) 2,381 0.7 -22.6°
Reaches altitude 10° 23:52:57 10° 305° (NW) 1,511 -0.4 -23.0°
Enters shadow 23:55:21 42° 294° (WNW) 614 -2.6 -23.4°
